041008 415  0.4+  0.8-    041104 104  0.7-  0.2-    050108 349  0.2+  0.9+  

041008 415  0.8+  1.2-    041105 I77  1.0+  0.7-    050109 049 (2.1-  0.8-) 

041008 589  0.2-  0.2-    041105 I77  0.5-  1.2-    050109 049  1.1-  0.0   

041008 176  0.2+  0.3-    041105 I77  0.2-  0.5-    050109 049  1.2-  0.0   

041008 176  0.0   0.3-    041105 I77 (2.9+  0.4-)   050110 201  1.7+  0.1-  

041008 176  0.1+  0.3-    041105 704  1.0+  0.3-    050110 201  1.0+  0.1-  

041008 176  0.2+  0.3-    041105 699 (3.8+  4.1+)   050110 201  0.6+  0.2-  

041008 176  0.2+  0.2-    041105 704  1.7+  1.6+    050110 215  0.3-  0.1+  

041008 589  0.2-  0.0     041105 699 (3.7+  3.2+)   050110 118  1.0-  0.6-  

041009 I05  0.3+  0.3+    041105 704  0.7-  1.4+    050110 118  0.9-  0.2-  

041009 I05  0.2-  0.5+    041105 699 (2.2+  2.1+)   050110 118  1.4-  0.6-  

041009 I77  0.7+  0.4-    041105 704  0.7+  1.1+    050111 201  0.4+  0.3-  

041009 I77  0.5+  0.4-    041105 704 (0.5-  6.2+)   050111 201  1.3+  0.0   

041009 I77  0.1+  0.1-    041105 699 (2.3+  2.2+)   050122 J79 (3.9+  5.9-) 

041009 I77  0.0   0.2-    041105 213  0.4-  0.2-    050122 J79 (3.2-  0.4+) 

041009 699 (8.1-  3.4+)   041105 213  0.6-  0.6+    050130 561 (2.1+  1.0-) 

041009 699 (7.3-  3.0+)   041105 213  1.1-  0.4-    050130 561  0.4-  0.8+  

041009 699 (6.2-  3.2+)   041106 834  1.3-  0.1-    050130 561  1.3+  1.5-  

041009 699 (4.6-  3.3+)   041106 834  1.0-  1.3+    050203 704  1.1+  0.3+  

041009 608 (2.0-  1.9+)   041106 372  0.3-  0.9-    050203 704 (3.6+  2.4+) 

041009 608 (1.8-  2.4+)   041106 360  1.0-  0.8-    050203 704  1.1+  1.0+  

041009 608  1.6-  1.4+    041106 360  1.0-  0.9-    050203 704  0.3+  0.7+  

041009 415  0.0   0.4-    041106 A32  0.3+  1.1+    050203 704 (2.1-  0.3-) 

041009 415  0.3-  0.3-    041106 A32  0.2+  0.8+    050204 704  1.4-  0.5-  

041009 415  0.5-  0.1+    041106 A32  0.2+  0.7+    050204 704 (1.7+  3.1+) 

041009 415  0.5-  0.3-    041106 A32  0.4+  0.5+    050204 704  0.4+  0.4-  

041009 213  0.8-  0.6+    041107 A61 (0.4-  3.0-)   050204 704  0.5+  0.3-  

041010 704 (2.5+  1.6-)   041107 A61  0.2-  1.9-    050204 704 (2.1-  1.2+) 

041010 704  0.8+  0.6-    041107 A61 (1.9+  3.1-)   050204 704  1.1+  0.2+  

041010 704  0.2-  0.3-    041108 104  0.5-  0.2-    050204 704  0.7-  1.5-  

041010 704  0.7-  0.7-    041108 104  0.3-  0.1+    050204 704  0.0   0.3+  

041010 704 (3.6-  4.2+)   041108 104  0.8-  0.0     050204 704  1.8+  0.6+  

041010 415  0.3+  0.8+    041108 204  0.6-  0.7-    050204 704  1.4-  1.2+  

041010 415  0.2+  0.2-    041108 204  0.6-  0.6-    050204 699  0.9+  0.4+  

041010 415  0.3-  0.4+    041109 D88  0.8-  1.9+    050204 699  1.0+  0.6+  

041010 213  0.3-  0.2+    041109 D88  1.1-  0.4+    050204 699 (4.3+  1.3+) 

041010 213  0.4-  0.1+    041109 D83  1.1-  0.4-    050204 699 (3.2+  0.3-) 

041010 213  0.0   0.5+    041109 D83  0.7-  0.4-    050207 118  0.2-  0.1-  

041010 J78  0.3-  0.3-    041109 D83  0.5-  0.1-    050207 A41 (7.2+  3.2+) 

041010 J78  0.3-  0.4-    041109 D83  1.2+  0.4+    050207 118  0.2+  0.5-  

041010 J78  0.6+  0.1-    041109 352  0.2-  0.1+    050207 118  0.9-  0.4-  

041011 367  0.2-  0.0     041109 352  0.6+  0.5-    050207 118  0.1+  0.0   

041011 367  0.3-  0.1+    041109 349  1.0+  0.4-    050207 118  1.3-  0.3+  

041011 367  0.1-  0.1+    041109 352  0.6+  0.4+    050207 A41  0.4-  0.3+  

041011 900  0.5+  0.4+    041109 349  1.6+  0.2-    050207 A41 (1.1-  4.1-) 

041011 900  0.1+  0.2+    041110 673  1.2-  0.7-    050208 201  0.6+  0.0   

041011 372  0.1-  1.3+    041110 673  1.4-  0.6-    050208 201  0.0   0.0   

041011 J78  0.0   0.7+    041110 673  1.5-  0.6-    050208 201  0.8-  0.2-  

041011 J78  0.3-  0.8+    041110 673  1.5-  0.8-    050306 360  1.0+  0.0   

041011 A32  0.6-  0.4+    041110 213  1.4-  0.2-    050306 360  0.1+  0.7-  

041011 J78  0.6-  1.1+    041110 213  0.5-  0.2-    050306 360  0.5+  0.6-  

041011 A32  0.2-  0.7+    041110 213  0.1-  0.8-    050307 360  0.7-  0.0   

041011 A32  0.0   0.3+    041111 699 (4.1+  2.2+)   050307 360  0.8+  0.0   

041011 A32  0.7-  0.3+    041111 699 (2.1+  1.2+)   050307 360  0.9-  0.1+  

041011 A10  0.3-  0.3+    041111 699  1.9+  0.8+                            



NAKANO

         **** Don't distribute anyone except personal use only ****

                (C) Copyright 2005 OAA/ComputingSection

write mail from CFAD0::NAKANO on 2005-11-03 23:34:28(JST).

 



    P/2004 T1 (LINEAR-NEAT)                                               

Epoch 2004 Nov. 11.0 TT = JDT 2453320.5  

T 2004 Nov. 7.76922 TT                                  Nakano

q   1.7095762            (2000.0)            P               Q

n   0.15233393     Peri.  336.52339     +0.87732011     -0.45594170

a   3.4722018      Node    51.45989     +0.46504791     +0.73065990

e   0.5076391      Incl.   11.03803     +0.11848996     +0.50818626

P   6.47 (+/- 0.01 day)

From 418 observations 2004 July 16-2005 Jan. 30, mean residual 0".64.



NAKANO

         **** Don't distribute anyone except personal use only ****

                (C) Copyright 2005 OAA/ComputingSection

write mail from CFAD0::NAKANO on 2005-02-04 04:54:56(JST).

 



    P/2004 T1 (LINEAR-NEAT)                                               

Epoch 2004 Nov. 11.0 TT = JDT 2453320.5  

T 2004 Nov. 7.76785 TT                                  Nakano

q   1.7095770            (2000.0)            P               Q

n   0.15233573     Peri.  336.52261     +0.87732608     -0.45593027

a   3.4721744      Node    51.45992     +0.46503833     +0.73066614

e   0.5076351      Incl.   11.03801     +0.11848334     +0.50818754

P   6.47 (+/- 0.02 day)

From 396 observations 2004 July 16-Dec. 25, mean residual 0".63.



NAKANO

         **** Don't distribute anyone except personal use only ****

                (C) Copyright 2005 OAA/ComputingSection

write mail from CFAD0::NAKANO on 2005-01-04 01:58:32(JST).

 





    P/2004 T1 (LINEAR-NEAT)                                               

Epoch 2004 Nov. 11.0 TT = JDT 2453320.5  

T 2004 Nov. 7.76988 TT                                  Nakano

q   1.7095715            (2000.0)            P               Q

n   0.15233470     Peri.  336.52378     +0.87731676     -0.45594828

a   3.4721901      Node    51.45992     +0.46505324     +0.73065675

e   0.5076389      Incl.   11.03800     +0.11849384     +0.50818489

P   6.47 (+/- 0.02 day)

From 357 observations 2004 July 16-Dec. 5, mean residual 0".62.



NAKANO

         **** Don't distribute anyone except personal use only ****

                (C) Copyright 2004 OAA/ComputingSection

write mail from CFAD0::NAKANO on 2004-12-09 01:41:38(JST).

 



◎P/2004 T1の軌道と予報位置です



  9月の発見前の観測に続いて,LINEARサ−ベイで行なわれていた7月16日の

1夜の観測群の中からも,発見前の観測が見つかりました.このとき,彗星の

CCD 全光度は18等級とのこと.

  11月に入ってからの CCD全光度は,11月3日に15.4等(浅見),6日に14.5

等(中村)と発見光度より,かなり明るく観測されています.今後,しばらく,

この光度で観測できるでしょう.



    P/2004 T1 (LINEAR-NEAT)                                               

Epoch 2004 Nov. 11.0 TT = JDT 2453320.5  

T 2004 Nov. 7.77015 TT                                  Nakano

q   1.7095501            (2000.0)            P               Q

n   0.15234305     Peri.  336.52361     +0.87731322     -0.45595603

a   3.4720632      Node    51.46055     +0.46505886     +0.73065602

e   0.5076270      Incl.   11.03769     +0.11849800     +0.50817899

P   6.47 (+/- 0.03 day)

From 278 observations 2004 July 16-Nov. 6, mean residual 0".57.

 

Date/        TT  R.A.(2000) Decl.     Delta   r     Daily motion  Mag.  Moon Age

              h    h  m       。  ,                      ,  / PA 。  m1      。

2004 Nov.  5 12  00 40.96  -06 07.8   0.813  1.710    16.2 / 355  14.4  129  .48

           6 12  00 40.86  -05 51.7   0.818  1.710    16.3 / 357  14.4  141  .38

           7 12  00 40.80  -05 35.4   0.822  1.710    16.5 / 359  14.4  153  .29

           8 12  00 40.78  -05 18.9   0.827  1.710    16.6 /   1  14.4  165  .20

           9 12  00 40.79  -05 02.3   0.833  1.710    16.8 /   2  14.4  174  .12

          10 12  00 40.83  -04 45.5   0.838  1.710    17.0 /   4  14.4  165  .06

          11 12  00 40.92  -04 28.6   0.843  1.710    17.2 /   6  14.5  152  .02

          12 12  00 41.04  -04 11.5   0.849  1.710    17.4 /   8  14.5  138  .00

          13 12  00 41.20  -03 54.3   0.855  1.710    17.6 /  10  14.5  124  .01

          14 12  00 41.39  -03 37.0   0.860  1.711    17.8 /  11  14.5  109  .05

          15 12  00 41.62  -03 19.5   0.866  1.711    18.0 /  13  14.5   94  .12

          16 12  00 41.89  -03 02.0   0.873  1.712    18.2 /  14  14.5   80  .20

          17 12  00 42.19  -02 44.3   0.879  1.712    18.5 /  16  14.6   66  .31

          18 12  00 42.53  -02 26.6   0.885  1.713    18.7 /  18  14.6   52  .42

          19 12  00 42.91  -02 08.8   0.892  1.713    18.9 /  19  14.6   38  .53

          20 12  00 43.32  -01 50.9   0.899  1.714    19.2 /  20  14.6   25  .64

          21 12  00 43.76  -01 32.9   0.905  1.714    19.4 /  22  14.6   12  .74

          22 12  00 44.25  -01 14.9   0.912  1.715    19.7 /  23  14.6    4  .82

          23 12  00 44.76  -00 56.8   0.920  1.716    19.9 /  25  14.7   14  .89

          24 12  00 45.32  -00 38.7   0.927  1.717    20.2 /  26  14.7   26  .95

          25 12  00 45.90  -00 20.5   0.934  1.718    20.4 /  27  14.7   38  .98

          26 12  00 46.52  -00 02.3   0.942  1.719    20.7 /  28  14.7   50 1.00

          27 12  00 47.17  +00 15.9   0.949  1.720    20.9 /  29  14.7   62 1.00

          28 12  00 47.85  +00 34.1   0.957  1.721    21.2 /  30  14.8   74  .97

          29 12  00 48.57  +00 52.4   0.965  1.722    21.5 /  32  14.8   86  .93

          30 12  00 49.32  +01 10.7   0.973  1.723    21.7 /  33  14.8   97  .88

     Dec.  1 12  00 50.10  +01 29.0   0.981  1.724    22.0 /  34  14.8  109  .81

           2 12  00 50.91  +01 47.3   0.989  1.725    22.2 /  35  14.8  120  .74

